Погода в Гдыне

Польша     54°30′29″N   18°32′35″E
темп.,
°C
ветер,
м/с
пор.,
м/с
влажн.,
%
обл.,
%
осадки,
мм/ч
давл.,
гПа
погр.,
м
27 февраля, сб
сб2701:00+3зсз713870 0.0 1024366
04:00+3зсз511890 0.0 1025349
07:00+2сз511910 0.0 1028333
10:00+4сз59790 0.0 1030588
13:00+5ссз69710 0.0 1032703
16:00+4сз58740 0.0 1032519
19:00+2зсз49840 0.0 1033277
22:00+2з597844 0.0 1033224
28 февраля, вс
вс2801:00+3з5108072 0.0 1032245
04:00+3з6129234 0.0 1031353
07:00+3з6129326 0.0 1031436
10:00+4зсз6118985 0.0 1030482
13:00+5сз6108364 0.0 1031399
16:00+5зсз69831 0.0 1031268
19:00+3зсз59911 0.0 1032230
22:00+2зсз36920 0.0 1032146
1 марта, пн
пн101:00+2зсз33890 0.0 103362
04:00+2з33870 0.0 103240
07:00+2з47890 0.0 1033131
10:00+6з47740 0.0 1033197
13:00+9з47650 0.0 1032313
16:00+8з611710 0.0 1031363
19:00+5з714710 0.0 1031352
22:00+4зсз713830 0.0 1031350
2 марта, вт
вт201:00+3зсз511880 0.0 1031315
04:00+2зсз410910 0.0 1030237
07:00+2зсз49922 0.0 1031233
10:00+5зсз36841 0.0 1031300
13:00+7з367810 0.0 1031422
16:00+7зсз478053 0.0 1030432
19:00+4зсз488966 0.0 1030337
22:00+3зсз468899 0.0 1031386
3 марта, ср
ср301:00+2з259578 0.0 1031173
04:00+2зюз229539 0.0 103040
07:00+2з229523 0.0 103040
10:00+5зюз12826 0.0 1030191
13:00+8ююз12653 0.0 1028391
16:00+8з13660 0.0 1026354
19:00+5юз22776 0.0 102423
22:00+5юз36832 0.0 1023103